When you browse on this site, cookies collect data to enhance your experience and personalize the content and advertising you see.
Visit our Privacy Policy to learn more. By continuing to use the site, you agree to this use of cookies and data.
  • En Estados Unidos
  • Lista de países
  • Para 7 días
  • Temperatura del agua
  • Mapa Satelital
  • El tiempo en el mapa
  • Informadores
  • user-avatar
    Iniciar sesión

    Tiempo cada hora Mauritius

    Hoy, 17 Diciembre, Lunes

    Tiempo Temperatura Precipitaciones Viento Presión Humedad
    00:00 +24°C° 0.1 mm 7 mps 725 mmHg 74%
    01:00 +24°C° 0.1 mm 7 mps 725 mmHg 74%
    02:00 +24°C° 0 mm 7 mps 725 mmHg 75%
    03:00 +24°C° 0 mm 7 mps 725 mmHg 75%
    04:00 +24°C° 0 mm 7 mps 725 mmHg 76%
    05:00 +24°C° 0 mm 7 mps 725 mmHg 75%
    06:00 +24°C° 0 mm 7 mps 725 mmHg 74%
    07:00 +24°C° 0 mm 7 mps 725 mmHg 73%
    08:00 +26°C° 0 mm 7 mps 725 mmHg 72%
    09:00 +26°C° 0 mm 7 mps 725 mmHg 70%
    10:00 +27°C° 0 mm 7 mps 725 mmHg 68%
    11:00 +27°C° 0 mm 7 mps 725 mmHg 67%
    12:00 +27°C° 0 mm 7 mps 725 mmHg 66%
    13:00 +27°C° 0 mm 7 mps 725 mmHg 65%
    14:00 +27°C° 0 mm 7 mps 725 mmHg 66%
    15:00 +27°C° 0 mm 8 mps 724 mmHg 67%
    16:00 +27°C° 0 mm 8 mps 724 mmHg 67%
    17:00 +26°C° 0 mm 8 mps 724 mmHg 70%
    18:00 +26°C° 0 mm 8 mps 725 mmHg 72%
    19:00 +26°C° 0 mm 8 mps 725 mmHg 74%
    20:00 +24°C° 0 mm 8 mps 725 mmHg 74%
    21:00 +24°C° 0 mm 8 mps 725 mmHg 74%
    22:00 +24°C° 0 mm 8 mps 725 mmHg 74%
    23:00 +24°C° 0 mm 8 mps 725 mmHg 74%

    Mañana, 18 Diciembre, Martes

    Tiempo Temperatura Precipitaciones Viento Presión Humedad
    00:00 +24°C° 0 mm 8 mps 725 mmHg 74%
    01:00 +24°C° 0 mm 8 mps 724 mmHg 75%
    02:00 +24°C° 0 mm 8 mps 724 mmHg 76%
    03:00 +24°C° 0 mm 8 mps 724 mmHg 77%
    04:00 +23°C° 0 mm 8 mps 724 mmHg 78%
    05:00 +24°C° 0.1 mm 8 mps 724 mmHg 77%
    06:00 +24°C° 0.1 mm 8 mps 724 mmHg 77%
    07:00 +24°C° 0.1 mm 8 mps 724 mmHg 76%
    08:00 +26°C° 0.1 mm 8 mps 725 mmHg 74%
    09:00 +26°C° 0.1 mm 8 mps 725 mmHg 72%
    10:00 +27°C° 0.1 mm 8 mps 725 mmHg 70%
    11:00 +27°C° 0.1 mm 8 mps 725 mmHg 70%
    12:00 +27°C° 0.1 mm 8 mps 724 mmHg 69%
    13:00 +27°C° 0.1 mm 8 mps 724 mmHg 69%
    14:00 +27°C° 0.2 mm 8 mps 724 mmHg 70%
    15:00 +27°C° 0.2 mm 7 mps 723 mmHg 71%
    16:00 +27°C° 0.2 mm 7 mps 723 mmHg 72%
    17:00 +26°C° 0.4 mm 7 mps 723 mmHg 73%
    18:00 +26°C° 0.4 mm 8 mps 724 mmHg 75%
    19:00 +26°C° 0.4 mm 8 mps 724 mmHg 77%
    20:00 +26°C° 0.4 mm 8 mps 724 mmHg 77%
    21:00 +26°C° 0.4 mm 8 mps 725 mmHg 78%
    22:00 +26°C° 0.4 mm 8 mps 725 mmHg 79%
    23:00 +26°C° 0.2 mm 8 mps 724 mmHg 79%

    Pasado mañana, 19 Diciembre, Miércoles

    Tiempo Temperatura Precipitaciones Viento Presión Humedad
    00:00 +24°C° 0.2 mm 8 mps 724 mmHg 79%
    01:00 +24°C° 0.2 mm 8 mps 724 mmHg 79%
    02:00 +24°C° 0.3 mm 9 mps 723 mmHg 79%
    03:00 +24°C° 0.3 mm 9 mps 723 mmHg 80%
    04:00 +24°C° 0.3 mm 9 mps 723 mmHg 80%
    05:00 +24°C° 0 mm 9 mps 723 mmHg 78%
    06:00 +24°C° 0 mm 9 mps 723 mmHg 76%
    07:00 +26°C° 0 mm 9 mps 724 mmHg 75%
    08:00 +26°C° 0 mm 9 mps 724 mmHg 73%
    09:00 +27°C° 0 mm 8 mps 724 mmHg 72%
    10:00 +27°C° 0 mm 8 mps 724 mmHg 70%
    11:00 +27°C° 0.1 mm 8 mps 724 mmHg 69%
    12:00 +28°C° 0.1 mm 8 mps 724 mmHg 69%
    13:00 +28°C° 0.1 mm 8 mps 723 mmHg 68%
    14:00 +28°C° 0.1 mm 8 mps 723 mmHg 68%
    15:00 +28°C° 0.1 mm 8 mps 723 mmHg 69%
    16:00 +27°C° 0.1 mm 7 mps 723 mmHg 70%
    17:00 +27°C° 0.1 mm 8 mps 723 mmHg 72%
    18:00 +27°C° 0.1 mm 8 mps 723 mmHg 74%
    19:00 +26°C° 0.1 mm 8 mps 723 mmHg 76%
    20:00 +26°C° 0.1 mm 8 mps 724 mmHg 77%
    21:00 +26°C° 0.1 mm 8 mps 724 mmHg 77%
    22:00 +26°C° 0.1 mm 8 mps 725 mmHg 78%
    23:00 +24°C° 0.1 mm 8 mps 724 mmHg 78%

    20 Diciembre, Jueves

    Tiempo Temperatura Precipitaciones Viento Presión Humedad
    00:00 +24°C° 0.1 mm 8 mps 723 mmHg 78%
    01:00 +24°C° 0.1 mm 7 mps 723 mmHg 78%
    02:00 +24°C° 0.2 mm 7 mps 723 mmHg 79%
    03:00 +24°C° 0.2 mm 7 mps 722 mmHg 79%
    04:00 +24°C° 0.2 mm 7 mps 722 mmHg 80%
    05:00 +24°C° 0.2 mm 8 mps 722 mmHg 79%
    06:00 +24°C° 0.2 mm 8 mps 723 mmHg 78%
    07:00 +24°C° 0.2 mm 8 mps 723 mmHg 77%
    08:00 +26°C° 0.2 mm 8 mps 723 mmHg 74%
    09:00 +26°C° 0.2 mm 8 mps 723 mmHg 71%
    10:00 +27°C° 0.2 mm 8 mps 723 mmHg 68%
    11:00 +27°C° 0 mm 8 mps 723 mmHg 67%
    12:00 +27°C° 0 mm 8 mps 723 mmHg 66%
    13:00 +28°C° 0 mm 7 mps 722 mmHg 64%
    14:00 +28°C° 0 mm 7 mps 722 mmHg 65%
    15:00 +27°C° 0 mm 7 mps 721 mmHg 66%
    16:00 +27°C° 0 mm 7 mps 721 mmHg 66%
    17:00 +27°C° 0 mm 7 mps 721 mmHg 68%
    18:00 +26°C° 0 mm 7 mps 721 mmHg 70%
    19:00 +26°C° 0 mm 7 mps 722 mmHg 71%
    20:00 +26°C° 0 mm 7 mps 722 mmHg 72%
    21:00 +26°C° 0 mm 7 mps 722 mmHg 73%
    22:00 +26°C° 0 mm 7 mps 723 mmHg 74%
    23:00 +24°C° 0 mm 7 mps 722 mmHg 74%

    21 Diciembre, Viernes

    Tiempo Temperatura Precipitaciones Viento Presión Humedad
    00:00 +24°C° 0 mm 6 mps 721 mmHg 74%
    01:00 +24°C° 0 mm 6 mps 721 mmHg 74%
    02:00 +24°C° 0 mm 6 mps 721 mmHg 76%
    03:00 +24°C° 0 mm 6 mps 720 mmHg 77%
    04:00 +24°C° 0 mm 6 mps 720 mmHg 78%
    05:00 +24°C° 0.1 mm 6 mps 720 mmHg 78%
    06:00 +24°C° 0.1 mm 6 mps 721 mmHg 78%
    07:00 +24°C° 0.1 mm 6 mps 721 mmHg 78%
    08:00 +26°C° 0.1 mm 6 mps 721 mmHg 76%
    09:00 +26°C° 0.1 mm 6 mps 721 mmHg 75%
    10:00 +26°C° 0.1 mm 6 mps 720 mmHg 74%
    11:00 +27°C° 0.1 mm 6 mps 720 mmHg 73%
    12:00 +27°C° 0.1 mm 6 mps 719 mmHg 71%
    13:00 +27°C° 0.1 mm 6 mps 719 mmHg 70%
    14:00 +27°C° 0.1 mm 6 mps 718 mmHg 71%
    15:00 +27°C° 0.1 mm 6 mps 718 mmHg 72%
    16:00 +27°C° 0.1 mm 7 mps 718 mmHg 73%
    17:00 +27°C° 0.1 mm 7 mps 718 mmHg 75%
    18:00 +26°C° 0.1 mm 7 mps 718 mmHg 77%
    19:00 +26°C° 0.1 mm 7 mps 719 mmHg 79%
    20:00 +26°C° 0.1 mm 7 mps 719 mmHg 79%
    21:00 +26°C° 0.1 mm 7 mps 719 mmHg 80%
    22:00 +26°C° 0.1 mm 7 mps 719 mmHg 81%
    23:00 +26°C° 0.3 mm 7 mps 719 mmHg 81%

    22 Diciembre, Sábado

    Tiempo Temperatura Precipitaciones Viento Presión Humedad
    00:00 +26°C° 0.3 mm 7 mps 718 mmHg 82%
    01:00 +24°C° 0.3 mm 7 mps 717 mmHg 83%
    02:00 +24°C° 0 mm 7 mps 717 mmHg 82%
    03:00 +24°C° 0 mm 8 mps 717 mmHg 82%
    04:00 +26°C° 0 mm 8 mps 717 mmHg 82%
    05:00 +26°C° 0.1 mm 8 mps 717 mmHg 82%
    06:00 +26°C° 0.1 mm 8 mps 717 mmHg 82%
    07:00 +26°C° 0.1 mm 8 mps 718 mmHg 82%
    08:00 +26°C° 0.7 mm 8 mps 718 mmHg 81%
    09:00 +26°C° 0.7 mm 8 mps 718 mmHg 80%
    10:00 +26°C° 0.7 mm 8 mps 718 mmHg 80%
    11:00 +26°C° 0.8 mm 8 mps 718 mmHg 79%
    12:00 +26°C° 0.8 mm 7 mps 717 mmHg 79%
    13:00 +27°C° 0.8 mm 7 mps 717 mmHg 78%
    14:00 +27°C° 1.1 mm 7 mps 717 mmHg 78%
    15:00 +27°C° 1.1 mm 8 mps 716 mmHg 77%
    16:00 +27°C° 1.1 mm 8 mps 716 mmHg 77%
    17:00 +26°C° 0.6 mm 8 mps 716 mmHg 78%
    18:00 +26°C° 0.6 mm 8 mps 717 mmHg 80%
    19:00 +26°C° 0.6 mm 8 mps 717 mmHg 81%
    20:00 +26°C° 0.3 mm 8 mps 717 mmHg 82%
    21:00 +26°C° 0.3 mm 8 mps 717 mmHg 83%
    22:00 +26°C° 0.3 mm 8 mps 718 mmHg 83%
    23:00 +26°C° 0.1 mm 8 mps 717 mmHg 83%
    Mostrar más